[Iaude] MPEC B97: 2017 BX6 [a=1.91,e=0.46,i=2.3,H=24.2]

mpec at si.edu mpec at si.edu
Sat Jan 28 08:33:22 EST 2017


M.P.E.C. 2017-B97                                Issued 2017 Jan. 28, 13:29 UT
 
     The Minor Planet Electronic Circulars contain information on unusual
         minor planets and routine data on comets.  They are published
    on behalf of Division F of the International Astronomical Union by the
          Minor Planet Center, Smithsonian Astrophysical Observatory,
                          Cambridge, MA 02138, U.S.A.

             Prepared using the Tamkin Foundation Computer Network

                              MPC at CFA.HARVARD.EDU
            URL http://www.minorplanetcenter.net/    ISSN 1523-6714


                                   2017 BX6
 
Observations:
     K17B06X* C2017 01 26.46314 09 13 48.24 +39 52 30.5          20.1 rREB097G45
     K17B06X  C2017 01 26.46807 09 13 50.74 +39 52 25.8          20.5 rREB097G45
     K17B06X  C2017 01 26.47759 09 13 55.62 +39 52 16.8          19.8 rREB097G45
     K17B06X  C2017 01 26.47776 09 13 55.75 +39 52 16.1          20.5 rREB097G45
     K17B06X  C2017 01 26.48252 09 13 58.15 +39 52 11.4          19.9 rREB097G45
     K17B06X  C2017 01 26.48269 09 13 58.28 +39 52 11.1          19.9 rREB097G45
     K17B06X  C2017 01 26.48748 09 14 00.78 +39 52 06.7          20.5 rREB097G45
     K17B06X KC2017 01 27.08668 09 19 35.77 +39 43 59.3          19.1 RoEB097K88
     K17B06X KC2017 01 27.09081 09 19 38.03 +39 43 54.7          19.4 RoEB097K88
     K17B06X KC2017 01 27.09495 09 19 40.24 +39 43 50.0          19.5 RoEB097K88
     K17B06X  C2017 01 27.39360 09 22 32.16 +39 39 53.3          19.5 RoEB097926
     K17B06X  C2017 01 27.39804 09 22 34.51 +39 39 48.6          19.7 RoEB097926
     K17B06X  C2017 01 27.40347 09 22 37.38 +39 39 42.6          19.5 RoEB097926
     K17B06X KC2017 01 27.86483 09 27 14.32 +39 30 58.4          19.6 RoEB097K51
     K17B06X KC2017 01 27.86706 09 27 15.59 +39 30 56.6          19.4 RoEB097K51
     K17B06X KC2017 01 27.86932 09 27 16.85 +39 30 54.6          19.6 RoEB097K51
     K17B06X  C2017 01 27.96321 09 28 08.83 +39 29 18.7                qEB097246
     K17B06X  C2017 01 27.96414 09 28 09.44 +39 29 16.7                qEB097246
     K17B06X  C2017 01 27.96591 09 28 10.30 +39 29 16.4                qEB097246
     K17B06X  C2017 01 27.96836 09 28 11.68 +39 29 13.7                qEB097246
     K17B06X  C2017 01 27.96876 09 28 11.87 +39 29 13.3                qEB097246
     K17B06X  C2017 01 28.40624 09 32 30.77 +39 20 47.4          19.7 VqEB097G96
     K17B06X  C2017 01 28.41055 09 32 33.15 +39 20 41.7          19.8 VqEB097G96
     K17B06X  C2017 01 28.41483 09 32 35.60 +39 20 35.4          19.7 VqEB097G96
     K17B06X  C2017 01 28.41912 09 32 37.98 +39 20 29.0          19.9 VqEB097G96
     K17B06X  C2017 01 28.44939 09 32 55.06 +39 19 44.2          19.6 VqEB097G96
     K17B06X  C2017 01 28.45853 09 33 00.22 +39 19 29.4          19.2 VqEB097G96
     K17B06X  C2017 01 28.46463 09 33 03.73 +39 19 20.7          19.7 VqEB097G96
 
Observer details:
246 Klet Observatory-KLENOT.  Observers M. Tichy, J. Ticha.  Measurer M. Tichy.
    1.06-m KLENOT Telescope + CCD.
926 Tenagra II Observatory.  Observers M. Schwartz, P. R. Holvorcem.  Measurer
    M. Schwartz.  0.81-m f/7 Ritchey-Chretien + CCD.
G45 Space Surveillance Telescope, Atom Site.  Observers M. Blythe, R. Brungard,
    P. Festler, T. McVey, J. Paige, G. Spitz.  Measurers M. Cornell, A. Klein,
    J. Ruprecht, G. Ushomirsky, J. Varey, D. Woods.  3.5-m f/1 reflector + CCD.
G96 Mt. Lemmon Survey.  Observer R. A. Kowalski.  Measurers E. J. Christensen,
    D. C. Fuls, A. R. Gibbs, A. D. Grauer, J. A. Johnson, R. A. Kowalski,
    S. M. Larson, G. J. Leonard, R. G. Matheny, R. L. Seaman, F. C. Shelly.
    1.5-m reflector + 10K CCD.
K51 Osservatorio del Celado, Castello Tesino.  Observers G. Favero, R. Furgoni.
    Measurer R. Furgoni.  0.80-m f/4 reflector + CCD.
K88 GINOP-KHK, Piszkesteto.  Observer K. Sarneczky.  0.60-m Schmidt + CCD.
 
Orbital elements:
2017 BX6                                                 Earth MOID = 0.0411 AU
Epoch 2017 Feb. 16.0 TT = JDT 2457800.5                 MPC
M 359.02500              (2000.0)            P               Q
n   0.37269138     Peri.  157.58140     -0.88690913     -0.46192994
a   1.9123607      Node   354.90254     +0.41745254     -0.79813222
e   0.4623673      Incl.    2.31826     +0.19780183     -0.38678895
P   2.64           H   24.2           G   0.15           U   7
Residuals in seconds of arc
170126 G45  0.2+  0.2-    170127 926  0.2-  0.0     170127 246  0.5-  0.5+
170126 G45  0.1-  0.1-    170127 926  0.1-  0.1+    170128 G96  0.2+  0.4-
170126 G45  0.3-  0.3+    170127 926  0.0   0.0     170128 G96  0.2-  0.1+
170126 G45  0.2+  0.2-    170127 K51  0.0   0.0     170128 G96  0.4+  0.0
170126 G45  0.5-  0.2-    170127 K51  0.2+  0.2+    170128 G96  0.1+  0.2-
170126 G45  0.0   0.3-    170127 K51  0.0   0.2+    170128 G96  0.0   0.2+
170126 G45  0.3+  0.1+    170127 246  0.1-  0.1-    170128 G96  0.4-  0.5-
170127 K88  0.3-  0.3+    170127 246  1.0+  1.1-    170128 G96  0.0   0.3+
170127 K88  0.3+  0.1+    170127 246  0.4-  0.5+
170127 K88  0.3+  0.2-    170127 246  0.2-  0.5+

Ephemeris:
2017 BX6                 a,e,i = 1.91, 0.46, 2                   q = 1.0281
Date    TT    R. A. (2000) Decl.     Delta      r     Elong.  Phase     V
2016 12 29    07 15 57.9 +35 36 23   0.2027  1.1799   164.4    12.9    21.9
...
2017 01 13    07 52 41.2 +38 51 34   0.1311  1.1092   162.4    15.6    20.9
...
2017 01 21    08 32 00.9 +40 06 11   0.1006  1.0789   159.4    18.7    20.3
...
2017 01 27    09 18 50.3 +39 45 40   0.08162 1.0603   157.0    21.3    19.9
2017 01 28    09 28 28.7 +39 28 57   0.07884 1.0576   156.5    21.8    19.9
2017 01 29    09 38 40.0 +39 06 49   0.07618 1.0550   156.0    22.3    19.8
...
2017 02 04    10 49 53.9 +34 20 44   0.06334 1.0418   151.3    27.0    19.5
...
2017 02 12    12 31 51.2 +19 56 52   0.05715 1.0310   139.1    38.9    19.6
...
2017 02 27    14 28 51.6 -07 30 11   0.07837 1.0327   120.8    55.5    20.8

A. U. Tomatic                (C) Copyright 2017 MPC           M.P.E.C. 2017-B97




More information about the Iaude mailing list